This is the latest recevied weather packets stored in our database for station/object EA1FWM-12. If no packets are shown the sender has not sent any weather packets the latest 10 day(s).
| Time | Temp. | Humidity | Pressure | Rain* | Wind** | Luminosity | Snow |
|---|---|---|---|---|---|---|---|
| 1777081379 | 8.33° C | 78% | 1023.1 hPa | - | - | - | - |
| 1777080480 | 8.33° C | 77% | 1023.1 hPa | - | - | - | - |
| 1777079580 | 8.33° C | 77% | 1023.1 hPa | - | - | - | - |
| 1777078681 | 8.89° C | 76% | 1023.2 hPa | - | - | - | - |
| 1777077782 | 8.89° C | 76% | 1023.2 hPa | - | - | - | - |
| 1777076882 | 8.89° C | 75% | 1023.4 hPa | - | - | - | - |
| 1777075982 | 9.44° C | 74% | 1023.4 hPa | - | - | - | - |
| 1777075082 | 9.44° C | 74% | 1023.5 hPa | - | - | - | - |
| 1777074182 | 10° C | 73% | 1023.6 hPa | - | - | - | - |
| 1777073283 | 10° C | 72% | 1023.6 hPa | - | - | - | - |
| 1777072383 | 10.56° C | 71% | 1023.6 hPa | - | - | - | - |
| 1777071483 | 10.56° C | 70% | 1023.7 hPa | - | - | - | - |
| 1777070583 | 11.11° C | 69% | 1023.6 hPa | - | - | - | - |
| 1777069684 | 12.22° C | 67% | 1023.6 hPa | - | - | - | - |
| 1777068784 | 13.33° C | 67% | 1023.7 hPa | - | - | - | - |
| 1777067885 | 13.33° C | 66% | 1023.7 hPa | - | - | - | - |
| 1777066985 | 13.89° C | 66% | 1023.7 hPa | - | - | - | - |
| 1777066085 | 13.89° C | 66% | 1023.6 hPa | - | - | - | - |
| 1777065185 | 14.44° C | 65% | 1023.6 hPa | - | - | - | - |
| 1777064286 | 14.44° C | 65% | 1023.6 hPa | - | - | - | - |
| 1777063386 | 15° C | 64% | 1023.5 hPa | - | - | - | - |
| 1777062487 | 15.56° C | 63% | 1023.3 hPa | - | - | - | - |
| 1777061587 | 17.78° C | 63% | 1023.1 hPa | - | - | - | - |
| 1777061099 | 15.56° C | 61% | 1023 hPa | - | - | - | - |
| 1777059300 | 16.67° C | 59% | 1022.4 hPa | - | - | - | - |
* Rain since midnight (hover to see other rain measurements)
** Current wind speed in m/s (hover to see current wind gust speed)